www.pogodaiklimat.ru

Погода и климат >> Архив погоды >> Канада >> Нунавут >> Озеро Робертсон


ПОГОДА на Озере Робертсон

  • Прогноз погоды на Озере Робертсон
  • Монитор погоды на Озере Робертсон

АРХИВ ПОГОДЫ на Озере Робертсон

Время (UTC), дата Ветер
(напр.,м/с)
 
Видим.   Явления Облачность Т
(С)
Тd
(С)
f
(%)
Тe
(С)
Тes
(С)
Комфортность P
(гПа)
Po
(гПа)
Тmin
(С)
Tmax
(С)
R
(мм)
R24
(мм)
S
(см)
18 10.02 З 8 н/о н/о -16.6 -17.9 90 -28 -28 1012.6 980.6 -27.8 -13.5
21 10.02 СЗ 10 н/о н/о -17.3 -18.8 88 -30 -30 1012.1 980.1
00 11.02 СЗ 8 н/о н/о -19.4 -21.0 87 -31 -31 опасность
обморожения
1012.4 980.4 -19.4 -13.5
03 11.02 С 9 н/о н/о -22.3 -24.3 84 -36 -36 опасность
обморожения
1013.5 981.4
06 11.02 С 9 н/о н/о -26.0 -28.4 80 -41 -41 опасность
обморожения
1015.6 983.2 -26.0 -13.5 16
09 11.02 С 10 н/о н/о -30.0 -32.8 76 -47 -47 опасность
обморожения
1018.3 985.6
12 11.02 С 10 н/о н/о -32.0 -35.0 75 -49 -49 опасность
обморожения
1020.9 988.0 -32.0 -13.5
15 11.02 С 6 н/о н/о -33.7 -36.9 73 -48 -48 опасность
обморожения
1023.1 989.9
18 11.02 СЗ 3 н/о н/о -32.7 -35.9 73 -42 -42 опасность
обморожения
1025.4 992.0 -33.9 -26.0 0.3
21 11.02 СЗ 4 н/о н/о -30.4 -33.4 75 -41 -41 опасность
обморожения
1027.1 993.6
00 12.02 СЗ 7 н/о н/о -27.9 -30.6 78 -42 -42 опасность
обморожения
1028.6 995.1 -33.9 -27.9
03 12.02 З 4 н/о н/о -26.9 -29.5 79 -38 -38 опасность
обморожения
1027.9 994.3
06 12.02 З 5 н/о н/о -25.9 -28.4 79 -38 -38 опасность
обморожения
1027.2 993.8 -33.9 -25.9 7
09 12.02 З 4 н/о н/о -24.6 -26.9 81 -34 -34 опасность
обморожения
1026.5 993.2
12 12.02 З 4 н/о н/о -23.6 -25.8 82 -33 -33 опасность
обморожения
1025.2 992.1 -27.9 -25.9
15 12.02 З 6 н/о н/о -23.4 -25.5 83 -35 -35 опасность
обморожения
1024.2 991.2
18 12.02 ЮЗ 7 н/о н/о -27.6 -30.1 79 -42 -42 опасность
обморожения
1022.9 989.8 -32.7 -23.2
21 12.02 ЮЗ 5 н/о н/о -28.4 -31.0 78 -41 -41 опасность
обморожения
1021.4 988.4
00 13.02 ЮЗ 6 н/о н/о -29.7 -32.4 77 -43 -43 опасность
обморожения
1020.1 987.1 -29.7 -23.2
03 13.02 З 9 н/о н/о -30.3 -33.1 76 -47 -47 опасность
обморожения
1017.8 984.9
06 13.02 З 9 н/о н/о -29.3 -32.1 77 -45 -45 опасность
обморожения
1016.4 983.4 -30.5 -23.2 4
09 13.02 З 8 н/о н/о -28.8 -31.6 77 -44 -44 опасность
обморожения
1014.9 981.9
12 13.02 З 11 н/о н/о -28.6 -31.3 77 -45 -45 опасность
обморожения
1013.0 980.0 -30.5 -23.2
15 13.02 З 10 н/о н/о -27.5 -30.1 78 -44 -44 опасность
обморожения
1011.3 978.4
18 13.02 З 12 н/о н/о -26.2 -28.6 80 -43 -43 опасность
обморожения
1010.1 977.3 -30.5 -26.2
21 13.02 З 10 н/о н/о -24.9 -27.2 81 -40 -40 опасность
обморожения
1009.5 976.8
00 14.02 З 12 н/о н/о -24.0 -26.2 82 -40 -40 опасность
обморожения
1009.1 976.5 -29.6 -24.0
03 14.02 З 9 н/о н/о -24.2 -26.5 81 -39 -39 опасность
обморожения
1008.7 976.1
06 14.02 З 7 н/о н/о -24.0 -26.2 82 -37 -37 опасность
обморожения
1009.0 976.5 -29.6 -23.9 20
09 14.02 З 7 н/о н/о -24.1 -26.3 82 -37 -37 опасность
обморожения
1009.5 977.0
12 14.02 СЗ 5 н/о н/о -22.6 -24.7 83 -33 -33 опасность
обморожения
1010.5 978.1 -24.7 -23.9
15 14.02 С 5 н/о н/о -24.1 -26.2 83 -35 -35 опасность
обморожения
1012.3 979.8
18 14.02 СЗ 4 н/о н/о -27.2 -29.7 79 -38 -38 опасность
обморожения
1014.3 981.6 -27.2 -22.3
21 14.02 С 4 н/о н/о -29.0 -31.7 77 -39 -39 опасность
обморожения
1016.1 983.3
00 15.02 С 4 н/о н/о -29.6 -32.4 77 -41 -41 опасность
обморожения
1018.4 985.5 -30.0 -22.3
03 15.02 СВ 4 н/о н/о -29.1 -31.9 77 -40 -40 опасность
обморожения
1020.0 987.0
06 15.02 С 4 н/о н/о -30.1 -32.9 76 -42 -42 опасность
обморожения
1021.7 988.5 -30.1 -22.3 9
09 15.02 С 4 н/о н/о -31.4 -34.3 75 -42 -42 опасность
обморожения
1023.5 990.1
12 15.02 С 4 н/о н/о -31.6 -34.6 75 -43 -43 опасность
обморожения
1025.1 991.6 -31.9 -22.3
15 15.02 С 6 н/о н/о -30.7 -33.6 76 -45 -45 опасность
обморожения
1026.1 992.6
18 15.02 С 5 н/о н/о -28.2 -30.9 78 -40 -40 опасность
обморожения
1028.2 994.7 -31.9 -28.2
21 15.02 С 6 н/о н/о -26.5 -29.0 79 -39 -39 опасность
обморожения
1029.6 996.1
00 16.02 С 7 н/о н/о -28.4 -31.1 77 -42 -42 опасность
обморожения
1031.9 998.2 -31.9 -26.5
03 16.02 С 7 н/о н/о -31.7 -34.8 74 -47 -47 опасность
обморожения
1033.3 999.5
06 16.02 С 5 н/о н/о -33.6 -36.8 73 -47 -47 опасность
обморожения
1034.8 1001.0 -33.6 -26.5 20
09 16.02 СЗ 4 н/о н/о -34.8 -38.2 71 -46 -46 опасность
обморожения
1036.4 1002.5
12 16.02 СЗ 6 н/о н/о -34.7 -38.1 71 -50 -50 опасность
обморожения
1037.5 1003.5 -34.8 -26.5
15 16.02 С 4 н/о н/о -34.5 -37.9 71 -47 -47 опасность
обморожения
1038.6 1004.4
18 16.02 С 6 н/о н/о -33.6 -36.9 72 -48 -48 опасность
обморожения
1039.5 1005.3 -35.2 -33.6
21 16.02 С 9 н/о н/о -32.6 -35.8 73 -50 -50 опасность
обморожения
1040.8 1006.5
00 17.02 С 6 н/о н/о -32.8 -36.0 73 -47 -47 опасность
обморожения
1042.5 1008.2 -35.2 -32.4
03 17.02 СЗ 10 н/о н/о -33.3 -36.6 72 -51 -51 опасность
обморожения
1042.6 1008.2
06 17.02 СЗ 5 н/о н/о -34.2 -37.5 72 -48 -48 опасность
обморожения
1043.4 1009.0 -35.2 -32.4 23
09 17.02 СЗ 7 н/о н/о -34.8 -38.2 71 -50 -50 опасность
обморожения
1043.7 1009.3
12 17.02 З 6 н/о н/о -34.8 -38.3 70 -49 -49 опасность
обморожения
1043.5 1009.1 -35.3 -32.4
15 17.02 СЗ 6 н/о н/о -33.7 -36.9 73 -48 -48 опасность
обморожения
1042.9 1008.6

 

Местоположение метеостанции Озеро Робертсон (Нунавут, Канада): широта 65.10 долгота -102.40 высота над уровнем моря 244 м.

В архиве по умолчанию представлена погода на Озере Робертсон за последнюю неделю. Архивные данные за месяц целиком и за предыдущие месяцы, начиная с января 2011 года, Вы можете получить, выбрав интересующий диапазон дат из раскрывающегося списка и нажав кнопку "Ввод!".


*Определитесь, кто Вы:
робот инопланетянин человек

Внимание! Время в таблицах - всемирное. Для получения местного времени необходимо прибавить поправку, которая равна -6 ч.

Смотрите также архив погоды в соседних городах и на ближайших метеорологических станциях:

Погода в Ки Лейк 2 (Саскачеван, Канада) (211 км)
Погода на Реке Ханбери (Северо-Западные территории, Канада) (215 км)
Погода в Глеичене (Альберта, Канада) (292 км)
Погода в Бейкер-Лейке (Нунавут, Канада) (314 км)
Погода в Бейкер Лейк (Нунавут, Канада) (316 км)
Погода на Острове Хат (Нунавут, Канада) (373 км)
Погода в Люпине (Нунавут, Канада) (413 км)
Погода в Саскатуне (Саскачеван, Канада) (413 км)
Погода в Форте Рельянс (Северо-Западные территории, Канада) (422 км)
Погода в Кеймбридж-Бее (Нунавут, Канада) (460 км)

Пояснения к столбцам:

Ветер - указаны скорость ветра в м/с - средняя за 10 мин, порывы в срок и между сроками (в фигурных скобках) и направление, откуда дует ветер: С - северный, СВ - северо-восточный, В - восточный, ЮВ - юго-восточный, Ю - южный, ЮЗ - юго-западный, З - западный, СЗ - северо-западный.
Видимость - горизонтальная дальность видимости в метрах или километрах. При видимости от 1 до 10 км при отсутствии осадков обычно наблюдается дымка, при ухудшении видимости до 1 км и менее - туман. В сухую погоду видимость может ухудшаться дымом, пылью или мглою.
Явления - указаны атмосферные явления, наблюдавшиеся в срок или в последний час перед сроком; фигурными скобками обозначены явления, наблюдавшиеся между сроками (за 1-3 часа до срока); квадратными скобками обозначены град или гололедные отложения с указанием их диаметра в мм.
Облачность - указаны через наклонную черту общая и нижняя облачность в баллах и высота нижней границы облаков в метрах; квадратными скобками обозначены формы облаков: Ci - перистые, Cs - перисто-слоистые, Cc - перисто-кучевые, Ac - высококучевые, As - высокослоистые, Sc - слоисто-кучевые, Ns - слоисто-дождевые, Cu - кучевые, Cb - кучево-дождевые. Подробнее классификацию облаков см. в Атласе облаков (PDF).
T - Температура воздуха - температура, измеренная на высоте 2 м над землей.
Td - Температура точки росы - температура, при понижении до которой содержащийся в воздухе водяной пар достигнет насыщения.
f - Относительная влажность воздуха - влажноcть воздуха, измеренная на высоте 2 м над землей.
Te - Эффективная температура - температура, которую ощущает одетый по сезону человек в тени. Характеристика душности погоды. При расчете учитывается влияние влажности воздуха и скорости ветра на теплоощущения человека.
Tes - Эффективная температура на солнце - температура, которую ощущает человек, с поправкой на солнечный нагрев. Характеристика знойности погоды. Зависит от высоты солнца над горизонтом, облачности и скорости ветра. Ночью, в пасмурную погоду, а также при ветре 12 м/с и более поправка равна нулю.
P - Атмосферное давление - приведенное к уровню моря атмосферное давление.
Po - Атмосферное давление - измеренное на уровне метеостанции атмосферное давление.
Tmin - Минимальная температура - минимум температуры воздуха на высоте 2 м над землей.
Tmax - Максимальная температура - максимум температуры воздуха на высоте 2 м над землей.
R - Количество осадков - Количество выпавших осадков за период времени, мм. При наведении курсора мыши на число - период времени, за который выпало указанное количество осадков.
R24 - Количество осадков - Количество выпавших осадков за 24 часа, мм.
S - Снежный покров - Высота снежного покрова, см. При наведении курсора мыши на число - состояние снежного покрова и степень покрытия местности в баллах.